[[{"header":{"parameterUnit":"m.s-1","parameterCategory":1,"la1":30.2991,"la2":30.254,"lo1":-89.0895,"lo2":-89.0444,"dy":0.0017,"dx":0.0017,"nx":28,"ny":28,"refTime":"2025-01-16T03:00:00:Z","depth":0,"parameterNumber":2,"parameterNumberName":"U-component_of_WINDS"},"data":[0,0,0,0,0,0,0,0,0,0,0,0,0,0,0,0,0,0,0,0,0,0,0,0,0,0,0,0,0,0,0,0,0,0,0,0,0,0,0,0,0,0,0,0,0,0,0,0,0,0,0,0,0,0,0,0,0,0,-2.6406,-2.6406,0,-2.6423,-2.6423,-2.6424,-2.6413,-2.6412,-2.6412,-2.6411,-2.6428,-2.6429,-2.643,0,0,0,0,0,0,0,0,0,0,0,0,0,-2.6363,-2.6364,-2.6406,-2.6406,-2.6407,-2.6423,-2.6423,-2.6424,-2.6413,-2.6412,-2.6412,-2.6411,-2.6428,-2.6429,-2.643,0,0,0,0,0,0,0,0,0,0,0,0,0,-2.6381,-2.6364,-2.6406,-2.6403,-2.6403,-2.6423,-2.6423,-2.6424,-2.6413,-2.6412,-2.6412,-2.6411,-2.6427,-2.6429,-2.643,-2.6454,0,0,-2.6434,-2.6435,0,0,0,0,0,0,0,0,-2.638,-2.6383,-2.6404,-2.6404,-2.6403,-2.6415,-2.6414,-2.6434,-2.6413,-2.6409,-2.6411,-2.6411,-2.6424,-2.6426,-2.6431,-2.6454,-2.6455,-2.6434,-2.6435,-2.6436,-2.6436,0,0,0,0,0,0,0,-2.6379,-2.6382,-2.6413,-2.6404,-2.6404,-2.6401,-2.6402,-2.6418,-2.6421,-2.641,-2.6409,-2.6411,-2.6424,-2.643,-2.6431,-2.6455,-2.6434,-2.6436,-2.6436,-2.6437,-2.6497,-2.6498,0,0,0,0,0,0,-2.6378,-2.6381,-2.6412,-2.6413,-2.639,-2.6402,-2.6404,-2.6412,-2.6421,-2.6421,-2.6412,-2.6411,-2.6428,-2.643,-2.6432,-2.6458,-2.6436,-2.6437,-2.6438,-2.6496,-2.6497,-2.6498,0,0,0,0,0,0,-2.6377,-2.6381,-2.6412,-2.6397,-2.6401,-2.6404,-2.6413,-2.6413,-2.6418,-2.6422,-2.6423,-2.6417,-2.6427,-2.643,-2.6448,-2.6459,-2.6438,-2.6439,-2.6495,-2.6496,-2.6498,-2.6512,0,0,0,0,0,0,-2.6376,-2.6381,-2.639,-2.6397,-2.6401,-2.6428,-2.6414,-2.6414,-2.6421,-2.6419,-2.6427,-2.6427,-2.6427,-2.6446,-2.6449,-2.646,-2.644,-2.6494,-2.6496,-2.6497,-2.6511,-2.6514,-2.6516,0,0,0,0,0,-2.6374,-2.6394,-2.639,-2.6394,-2.6413,-2.6429,-2.6431,-2.643,-2.6422,-2.6431,-2.6433,-2.6427,-2.6457,-2.6448,-2.6451,-2.6463,-2.6494,-2.6495,-2.6497,-2.6509,-2.6513,-2.6516,0,0,0,0,0,0,-2.6388,-2.6395,-2.6391,-2.6414,-2.6421,-2.6427,-2.6438,-2.6434,-2.6444,-2.6442,-2.644,-2.6442,-2.646,-2.6464,-2.6453,-2.6485,-2.6474,-2.6476,-2.6482,-2.6485,-2.6488,-2.6486,-2.6441,0,0,0,0,0,-2.6393,-2.6406,-2.6411,-2.643,-2.6434,-2.6436,-2.6442,-2.6441,-2.6448,-2.6451,-2.6455,-2.6461,-2.6472,-2.6479,-2.6489,-2.6511,-2.6512,-2.6521,-2.6524,-2.6526,-2.6528,-2.6538,-2.6541,-2.6504,-2.6504,-2.6504,0,0,-2.6405,-2.641,-2.6418,-2.6433,-2.6438,-2.645,-2.6438,-2.6452,-2.646,-2.6453,-2.647,-2.6473,-2.648,-2.65,-2.6508,-2.6503,-2.6538,-2.6528,-2.653,-2.6531,-2.654,-2.6544,-2.6547,-2.6505,-2.6505,-2.6504,0,0,-2.6432,-2.6438,-2.6454,-2.6459,-2.6467,-2.6468,-2.6472,-2.6478,-2.648,-2.6497,-2.6491,-2.6501,-2.652,-2.6525,-2.653,-2.6557,-2.6552,-2.6561,-2.6575,-2.6585,-2.6587,-2.659,-2.6598,-2.6601,-2.6563,-2.6563,-2.6563,0,-2.6445,-2.6464,-2.6462,-2.6476,-2.6482,-2.6475,-2.6491,-2.6496,-2.6507,-2.6511,-2.6505,-2.6527,-2.6532,-2.6552,-2.6558,-2.6563,-2.6566,-2.6559,-2.6587,-2.659,-2.6592,-2.66,-2.6603,-2.6564,-2.6564,-2.6564,-2.6564,0,-2.6479,-2.6491,-2.6503,-2.6513,-2.6521,-2.6535,-2.6535,-2.6543,-2.654,-2.6541,-2.6558,-2.6563,-2.6574,-2.6578,-2.6577,-2.6598,-2.6594,-2.6588,-2.6576,-2.6597,-2.6604,-2.6607,-2.6565,-2.6565,-2.6565,-2.6564,0,0,-2.6515,-2.6523,-2.6527,-2.6531,-2.6539,-2.6548,-2.6562,-2.6572,-2.6578,-2.6585,-2.6596,-2.6612,-2.6605,-2.6611,-2.661,-2.6618,-2.6638,-2.6611,-2.6611,-2.6614,-2.6659,-2.6663,-2.6666,-2.6634,-2.6635,-2.6636,-2.6658,0,-2.6541,-2.6565,-2.6563,-2.6585,-2.6596,-2.6589,-2.6601,-2.6606,-2.6608,-2.6617,-2.6618,-2.6628,-2.662,-2.6623,-2.6632,-2.6634,-2.6646,-2.6632,-2.6643,-2.6643,-2.664,-2.667,-2.6675,-2.6696,-2.6661,-2.6662,-2.6662,0,-2.6575,-2.6583,-2.6605,-2.661,-2.6614,-2.6625,-2.6633,-2.6642,-2.6648,-2.6648,-2.6654,-2.6651,-2.6663,-2.6652,-2.6669,-2.6659,-2.6664,-2.6665,-2.6666,-2.6666,-2.6653,-2.667,-2.6702,-2.6705,-2.6667,-2.6666,-2.6666,0,-2.6597,-2.6613,-2.6628,-2.6632,-2.6638,-2.6646,-2.6648,-2.6654,-2.6659,-2.6666,-2.667,-2.6678,-2.6683,-2.6689,-2.6688,-2.668,-2.6704,-2.6694,-2.6704,-2.6704,-2.6708,-2.6708,-2.6741,-2.6714,-2.6714,-2.6714,-2.6714,0,-2.6625,-2.6639,-2.6638,-2.6647,-2.6662,-2.666,-2.6675,-2.6677,-2.6681,-2.669,-2.6685,-2.6694,-2.6692,-2.67,-2.67,-2.6713,-2.6715,-2.6715,-2.6714,-2.6714,-2.6714,-2.6716,-2.6714,-2.6714,-2.6714,-2.6714,-2.6714,0,-2.6652,-2.6652,-2.6668,-2.6672,-2.6673,-2.6684,-2.6687,-2.6696,-2.6696,-2.6707,-2.671,-2.6711,-2.672,-2.672,-2.6731,-2.673,-2.6745,-2.6744,-2.6743,-2.6742,-2.6752,-2.6751,-2.6786,-2.679,-2.6762,-2.6762,-2.6762,0,-2.6669,-2.6679,-2.6684,-2.669,-2.6693,-2.6702,-2.6708,-2.6706,-2.6712,-2.6718,-2.6725,-2.6734,-2.6741,-2.6756,-2.6757,-2.6765,-2.6763,-2.6775,-2.6764,-2.6763,-2.6761,-2.676,-2.676,-2.6777,-2.6777,-2.6777,-2.6777,0,-2.67,-2.6699,-2.6707,-2.6714,-2.6721,-2.6727,-2.6732,-2.6737,-2.6736,-2.6742,-2.6752,-2.6757,-2.6767,-2.6776,-2.6783,-2.6785,-2.6781,-2.6781,-2.6783,-2.6783,-2.6782,-2.6781,-2.6747,-2.678,-2.678,-2.6779,-2.6779,-2.6779,-2.6721,-2.6729,-2.6733,-2.6742,-2.6746,-2.6751,-2.6758,-2.676,-2.6767,-2.6775,-2.6774,-2.6784,-2.6788,-2.6797,-2.68,-2.6808,-2.6803,-2.6807,-2.6808,-2.6809,-2.6809,-2.6782,-2.6809,-2.6809,-2.6809,-2.6809,-2.6809,0,-2.675,-2.6752,-2.676,-2.6767,-2.6774,-2.6769,-2.6775,-2.678,-2.6789,-2.6793,-2.68,-2.681,-2.6818,-2.6819,-2.6827,-2.6832,-2.683,-2.6834,-2.6833,-2.6833,-2.6813,-2.681,-2.6835,-2.6835,-2.6835,-2.6835,-2.6835,-2.6835,-2.6765,-2.6778,-2.6778,-2.6792,-2.6794,-2.6804,-2.6807,-2.6811,-2.6815,-2.6826,-2.6832,-2.6833,-2.6836,-2.6843,-2.685,-2.685,-2.6852,-2.6857,-2.6856,-2.6837,-2.6835,-2.6832,-2.6829,-2.6858,-2.6858,-2.6875,-2.6875,-2.6875]},{"header":{"parameterUnit":"m.s-1","parameterCategory":1,"la1":30.2991,"la2":30.254,"lo1":-89.0895,"lo2":-89.0444,"dy":0.0017,"dx":0.0017,"nx":28,"ny":28,"refTime":"2025-01-16T03:00:00:Z","depth":0,"parameterNumber":3,"parameterNumberName":"V-component_of_WINDS"},"data":[0,0,0,0,0,0,0,0,0,0,0,0,0,0,0,0,0,0,0,0,0,0,0,0,0,0,0,0,0,0,0,0,0,0,0,0,0,0,0,0,0,0,0,0,0,0,0,0,0,0,0,0,0,0,0,0,0,0,3.0038,3.0039,0,3.0124,3.0125,3.0126,3.0119,3.0118,3.0117,3.0116,3.0204,3.0207,3.0211,0,0,0,0,0,0,0,0,0,0,0,0,0,2.9872,2.9875,3.0038,3.0039,3.0041,3.0124,3.0125,3.0126,3.012,3.0118,3.0116,3.0115,3.0203,3.0207,3.0211,0,0,0,0,0,0,0,0,0,0,0,0,0,2.9949,2.9876,3.0038,3.0047,3.0049,3.0123,3.0125,3.0126,3.012,3.0118,3.0116,3.0114,3.0201,3.0206,3.0212,3.0283,0,0,3.0228,3.023,0,0,0,0,0,0,0,0,2.9945,2.9956,3.0045,3.0047,3.0049,3.0109,3.0098,3.0179,3.012,3.0093,3.0116,3.0113,3.0174,3.0181,3.0201,3.0287,3.0291,3.0228,3.0231,3.0234,3.0235,0,0,0,0,0,0,0,2.994,2.9952,3.0072,3.0046,3.0049,3.0048,3.0057,3.0114,3.0143,3.0095,3.0095,3.0105,3.0174,3.0196,3.0203,3.0292,3.0228,3.0233,3.0236,3.0238,3.0443,3.0445,0,0,0,0,0,0,2.9932,2.9947,3.0069,3.0075,2.9991,3.0052,3.0062,3.0092,3.0142,3.0148,3.0107,3.0104,3.0188,3.0197,3.0207,3.0296,3.0234,3.0239,3.0242,3.0441,3.0443,3.0446,0,0,0,0,0,0,2.9928,2.9943,3.0066,3.0011,3.0027,3.0057,3.009,3.0094,3.0116,3.0151,3.0156,3.0124,3.0187,3.0199,3.0264,3.0299,3.0241,3.0246,3.0438,3.0442,3.0445,3.0473,0,0,0,0,0,0,2.9924,2.9942,2.9968,3.0012,3.003,3.0122,3.0092,3.0097,3.0125,3.0123,3.0168,3.0174,3.0186,3.0257,3.027,3.0305,3.025,3.0435,3.044,3.0444,3.0469,3.0477,3.0483,0,0,0,0,0,2.9918,2.9972,2.997,2.9985,3.0064,3.0124,3.0134,3.0147,3.0128,3.0156,3.0179,3.0173,3.0292,3.0263,3.0278,3.0315,3.0433,3.0438,3.0443,3.0466,3.0475,3.0483,0,0,0,0,0,0,2.9932,2.9978,2.9976,3.0046,3.0081,3.0123,3.0158,3.0156,3.0198,3.0194,3.0209,3.0219,3.0286,3.0306,3.0274,3.0388,3.036,3.0369,3.0372,3.0382,3.0389,3.0383,3.0254,0,0,0,0,0,2.9943,2.9988,3.0026,3.0084,3.0102,3.0127,3.0154,3.0161,3.0198,3.0213,3.024,3.0277,3.0323,3.0353,3.0397,3.0471,3.0483,3.0504,3.0512,3.0517,3.0525,3.0569,3.058,3.0463,3.0463,3.0462,0,0,2.9967,2.9998,3.0025,3.0088,3.0116,3.0163,3.014,3.019,3.0225,3.022,3.0285,3.0306,3.0348,3.0419,3.0451,3.0439,3.056,3.0524,3.0528,3.0533,3.0575,3.0586,3.0596,3.0466,3.0465,3.0465,0,0,3.0036,3.0062,3.0115,3.0144,3.0187,3.0204,3.0216,3.0259,3.0273,3.0337,3.0336,3.0378,3.0456,3.0487,3.0513,3.0595,3.0592,3.0609,3.0647,3.069,3.0699,3.0707,3.0739,3.075,3.0616,3.0616,3.0616,0,3.006,3.0131,3.0143,3.0194,3.0223,3.0221,3.0276,3.0303,3.0358,3.0379,3.0363,3.0463,3.0491,3.057,3.0591,3.0611,3.0627,3.0605,3.0696,3.0705,3.0713,3.0743,3.0755,3.0618,3.0618,3.0618,3.0617,0,3.016,3.0209,3.0247,3.0301,3.0334,3.0386,3.0407,3.0439,3.0444,3.0462,3.0529,3.0562,3.0615,3.0634,3.0638,3.0715,3.0706,3.0693,3.0666,3.0726,3.0755,3.0766,3.0621,3.062,3.062,3.0619,0,0,3.024,3.0301,3.0315,3.0341,3.0389,3.0428,3.0481,3.0532,3.056,3.0598,3.0645,3.0712,3.0701,3.0731,3.0739,3.0776,3.0842,3.0759,3.076,3.0775,3.0931,3.0942,3.0956,3.0839,3.0841,3.0843,3.0929,0,3.0316,3.041,3.0423,3.0507,3.0554,3.0553,3.06,3.0635,3.0654,3.0697,3.0718,3.0767,3.0747,3.0766,3.0802,3.0826,3.0874,3.082,3.0885,3.0887,3.0877,3.097,3.0982,3.1061,3.094,3.0942,3.0943,0,3.0416,3.0458,3.0547,3.0591,3.0611,3.0653,3.0702,3.0742,3.0783,3.0794,3.0828,3.0832,3.0889,3.0857,3.0937,3.09,3.0927,3.0943,3.0947,3.0955,3.092,3.0984,3.1086,3.1099,3.0961,3.0959,3.0958,0,3.0469,3.0548,3.0612,3.0633,3.0685,3.0715,3.0738,3.0776,3.0807,3.085,3.0871,3.0919,3.0947,3.0985,3.1003,3.0978,3.1082,3.1052,3.1095,3.1095,3.1119,3.1117,3.123,3.1132,3.1132,3.1132,3.1131,0,3.0553,3.0608,3.0637,3.0676,3.0739,3.0753,3.0815,3.0837,3.0872,3.0917,3.0918,3.096,3.098,3.1026,3.104,3.1105,3.1117,3.1129,3.1132,3.113,3.1129,3.115,3.1146,3.1135,3.1134,3.1133,3.1133,0,3.0624,3.0645,3.0715,3.0759,3.0771,3.0815,3.0853,3.0892,3.0911,3.0968,3.0982,3.1012,3.1066,3.1087,3.1152,3.1162,3.1239,3.1236,3.1225,3.1227,3.127,3.1267,3.1402,3.1421,3.1308,3.1309,3.131,0,3.0677,3.072,3.0768,3.0799,3.0823,3.0871,3.0903,3.092,3.0953,3.1003,3.1037,3.1091,3.1135,3.1222,3.125,3.13,3.1301,3.1345,3.1309,3.1306,3.1305,3.1304,3.1309,3.1352,3.1353,3.1354,3.1355,0,3.0771,3.078,3.0825,3.0875,3.0913,3.0953,3.0992,3.1017,3.1039,3.1077,3.1132,3.1166,3.1234,3.1289,3.1341,3.1366,3.1366,3.1366,3.1379,3.1379,3.1372,3.1379,3.1246,3.1363,3.1362,3.1362,3.1361,3.1361,3.0837,3.0876,3.0917,3.0968,3.0999,3.1036,3.1076,3.11,3.1146,3.1203,3.121,3.127,3.1311,3.1382,3.1409,3.1457,3.1446,3.1464,3.1469,3.1474,3.1479,3.1362,3.1466,3.1466,3.1466,3.1466,3.1466,0,3.0933,3.096,3.1007,3.1062,3.1103,3.1097,3.1141,3.1176,3.1229,3.1267,3.1311,3.1376,3.1429,3.1461,3.1515,3.1548,3.1549,3.1562,3.1561,3.1567,3.1485,3.1469,3.156,3.156,3.156,3.156,3.156,3.156,3.0988,3.1055,3.1069,3.1151,3.1177,3.1237,3.1262,3.1297,3.1328,3.1401,3.1445,3.1466,3.1502,3.1559,3.1608,3.1617,3.1638,3.1652,3.1659,3.1582,3.1573,3.1563,3.1549,3.1655,3.1655,3.1738,3.1739,3.174]}]]